Simultaneous Nadir Overpasses (SNOs) Predictions

Prediction of SNOs between AURA and NPP Satellite Orbit:

Table of predicted SNOs for the next 14.0 days since TLE Epoch: 2/4/2014
Index Date (AURA) Time (AURA) Lat,Lon (AURA) SZA (AURA ) Date (NPP) Time (NPP) Lat,Lon (NPP) SZA (NPP ) Distance(km) Time Diff (sec)
1 02/04/2014 09:47:04 78.48, -75.80 110.30 02/04/2014 09:46:45 78.47, -75.82 110.32 0.62 19
2 02/04/2014 10:36:21 -78.90, 94.16 70.27 02/04/2014 10:37:19 -78.90, 94.21 70.33 1.17 58
3 02/07/2014 01:14:14 -78.14,-129.22 70.05 02/07/2014 01:13:08 -78.13,-129.32 69.98 2.40 66
4 02/07/2014 02:03:26 78.68, 41.19 109.24 02/07/2014 02:03:37 78.68, 41.22 109.23 0.83 11
5 02/09/2014 17:30:36 -78.32, -12.46 71.11 02/09/2014 17:30:01 -78.31, -12.57 71.06 2.70 35
6 02/09/2014 18:19:50 78.81, 157.78 108.24 02/09/2014 18:20:32 78.81, 157.81 108.21 0.54 42
7 02/12/2014 09:46:56 -78.58, 104.80 72.31 02/12/2014 09:46:52 -78.59, 104.87 72.33 1.60 4
8 02/12/2014 10:36:08 79.14, -84.36 106.93 02/12/2014 10:37:22 79.10, -84.37 106.88 3.84 74
9 02/15/2014 01:14:00 78.33, 51.75 107.14 02/15/2014 01:13:11 78.33, 51.82 107.16 1.60 49
10 02/15/2014 02:03:20 -78.64,-138.98 73.29 02/15/2014 02:03:49 -78.64,-139.07 73.29 2.09 29
11 02/17/2014 17:30:20 78.52, 168.65 105.97 02/17/2014 17:30:04 78.53, 168.75 105.96 2.19 16




NCC Satellite Simultaneous Nadir
